Weather in Yamm

Russia / Pskov Oblast     58°25′18″N   28°04′12″E
temp.,
°C
wind,
m/s
gust,
m/s
humid.,
%
clouds,
%
prec.,
mm/h
press.,
hPa
HPBL,
m
8 march, mon
mon800:00−8nw3108926 0.0 1000398
03:00−7n499046 0.0 1003732
06:00−9n4108990 0.0 1006511
09:00−10n498686 0.0 1009496
12:00−7n477669 0.0 1012596
15:00−5nnw476764 0.0 1014883
18:00−7nnw377271 0.0 1015689
21:00−10nnw268551 0.0 1017199
9 march, tue
tue900:00−11nnw22870 0.0 101836
03:00−12nnw11881 0.0 101921
06:00−11se118993 0.0 101821
09:00−10sse238996 0.0 1019169
12:00−7sse3589100 0.2 1018363
15:00−6se4691100 1.5 1018497
18:00−6ese5993100 2.2 1018555
21:00−8e61193100 4.3 1019551
10 march, wed
wed1000:00−10e61293100 1.8 1020572
03:00−12e61293100 4.2 1021500
06:00−12e61391100 0.9 1022555
09:00−13e61376100 1.1 1024556
12:00−10ese61264100 0.0 1025670
15:00−8ese61162100 0.0 1025825
18:00−9ese51169100 0.0 1024750
21:00−11ese51274100 0.0 1024625
11 march, thu
thu1100:00−11ese51376100 0.0 1024578
03:00−11se51193100 0.4 1023529
06:00−11se41092100 1.0 1021493
09:00−11se4990100 1.1 1021416
12:00−6sse598799 0.1 1019521
15:00−3sse5108699 0.2 1018644
18:00−2sse5108188 0.1 1015926
21:00−5se6158561 0.1 1013674
12 march, fri
fri1200:00−5se6148767 0.0 1010915
03:00−5se7148783 0.1 1007908
06:00−6se71586100 0.1 1003814
09:00−6se71489100 0.5 10001009
12:00−5se71389100 0.4 997898
15:00−3se61292100 1.1 996853
18:00−2se51195100 1.8 994645
21:00−2se4996100 2.6 994416